,,,PA_Meas_PMT16A,,PR_Meas_QMR101_102,,RH_Meas_QMH101,,SR_Meas_QMS101,,TA_Meas_QMH101,,GenWind,,GenWind,
date,time,status,PA,status,PR,status,RH,status,SR,status,TA,status,DirAvg,status,SpdAvg,
2011-04-11, 00:00:04,VALID,1011.11,VALID,0,VALID,103.032,VALID,0,VALID,23.926,VALID,84,VALID,0.890625,
2011-04-11, 00:01:04,VALID,1011.1,VALID,0,VALID,103.115,VALID,0,VALID,23.9065,VALID,60,VALID,0.685938,
2011-04-11, 00:02:04,VALID,1011.09,VALID,0,VALID,103.154,VALID,0,VALID,23.9065,VALID,73,VALID,0.566406,
2011-04-11, 00:03:04,VALID,1011.07,VALID,0,VALID,103.138,VALID,0,VALID,23.8871,VALID,85,VALID,0.808594,
2011-04-11, 00:04:04,VALID,1011.06,VALID,0,VALID,103.077,VALID,0,VALID,23.9084,VALID,76,VALID,0.874609,
2011-04-11, 00:05:04,VALID,1011.03,VALID,0,VALID,103.108,VALID,0.105969,VALID,23.9065,VALID,88,VALID,0.819141,
2011-04-11, 00:06:04,VALID,1011.01,VALID,0,VALID,103.131,VALID,0,VALID,23.9084,VALID,107,VALID,0.698828,
2011-04-11, 00:07:04,VALID,1011.02,VALID,0,VALID,102.993,VALID,0,VALID,23.8871,VALID,91,VALID,1.86875,
2011-04-11, 00:08:04,VALID,1010.97,VALID,0,VALID,102.917,VALID,0,VALID,23.9065,VALID,124,VALID,0.946875,
2011-04-11, 00:09:04,VALID,1010.97,VALID,0,VALID,102.887,VALID,0,VALID,23.9278,VALID,104,VALID,0.721094,
2011-04-11, 00:10:04,VALID,1010.95,VALID,0,VALID,102.757,VALID,0,VALID,23.9278,VALID,93,VALID,1.03867,
2011-04-11, 00:11:04,VALID,1010.95,VALID,0,VALID,102.765,VALID,0,VALID,23.9473,VALID,106,VALID,0.353125,
2011-04-11, 00:12:04,VALID,1010.95,VALID,0,VALID,102.742,VALID,0,VALID,23.9473,VALID,125,VALID,0.792969,
2011-04-11, 00:13:04,VALID,1010.94,VALID,0,VALID,102.605,VALID,0,VALID,23.9065,VALID,123,VALID,0.709375,
2011-04-11, 00:14:04,VALID,1010.94,VALID,0,VALID,102.635,VALID,0.105969,VALID,23.9065,VALID,112,VALID,0.619141,
2011-04-11, 00:15:04,VALID,1010.91,VALID,0,VALID,102.643,VALID,0,VALID,23.9065,VALID,100,VALID,0.679297,
2011-04-11, 00:16:04,VALID,1010.91,VALID,0,VALID,102.711,VALID,0,VALID,23.9065,VALID,117,VALID,0.922266,
2011-04-11, 00:17:04,VALID,1010.88,VALID,0,VALID,102.696,VALID,0,VALID,23.9065,VALID,113,VALID,0.802344,
2011-04-11, 00:18:04,VALID,1010.88,VALID,0,VALID,102.681,VALID,0.105969,VALID,23.8871,VALID,112,VALID,0.705469,
2011-04-11, 00:19:04,VALID,1010.86,VALID,0,VALID,102.727,VALID,0,VALID,23.9084,VALID,118,VALID,0.617188,
2011-04-11, 00:20:04,VALID,1010.85,VALID,0,VALID,102.788,VALID,0,VALID,23.8871,VALID,117,VALID,0.119922,
2011-04-11, 00:21:04,VALID,1010.83,VALID,0,VALID,102.78,VALID,0,VALID,23.8871,VALID,90,VALID,0.549609,
2011-04-11, 00:22:04,VALID,1010.84,VALID,0,VALID,102.749,VALID,0,VALID,23.9084,VALID,79,VALID,0.480859,
2011-04-11, 00:23:04,VALID,1010.82,VALID,0,VALID,102.742,VALID,0.105969,VALID,23.8676,VALID,100,VALID,0.367969,
2011-04-11, 00:24:04,VALID,1010.83,VALID,0,VALID,102.681,VALID,0.105969,VALID,23.8676,VALID,74,VALID,0.369922,
2011-04-11, 00:25:04,VALID,1010.83,VALID,0,VALID,102.658,VALID,0,VALID,23.8676,VALID,71,VALID,0.832031,
2011-04-11, 00:26:04,VALID,1010.85,VALID,0,VALID,102.582,VALID,0,VALID,23.8694,VALID,67,VALID,0.247656,
2011-04-11, 00:27:04,VALID,1010.86,VALID,0,VALID,102.582,VALID,0,VALID,23.8676,VALID,67,VALID,0.294141,
2011-04-11, 00:28:04,VALID,1010.87,VALID,0,VALID,102.635,VALID,0,VALID,23.8676,VALID,60,VALID,0.271094,
2011-04-11, 00:29:04,VALID,1010.87,VALID,0,VALID,102.681,VALID,0,VALID,23.8694,VALID,59,VALID,0.200391,
2011-04-11, 00:30:04,VALID,1010.84,VALID,0,VALID,102.704,VALID,0,VALID,23.8481,VALID,55,VALID,0,
2011-04-11, 00:31:04,VALID,1010.85,VALID,0,VALID,102.742,VALID,0,VALID,23.8286,VALID,55,VALID,0,
2011-04-11, 00:32:04,VALID,1010.83,VALID,0,VALID,102.742,VALID,0,VALID,23.8091,VALID,55,VALID,0,
2011-04-11, 00:33:04,VALID,1010.83,VALID,0,VALID,102.788,VALID,0,VALID,23.8304,VALID,55,VALID,0,
2011-04-11, 00:34:04,VALID,1010.81,VALID,0,VALID,102.841,VALID,0,VALID,23.8304,VALID,55,VALID,0,
2011-04-11, 00:35:04,VALID,1010.81,VALID,0,VALID,102.894,VALID,0,VALID,23.7896,VALID,55,VALID,0,
2011-04-11, 00:36:04,VALID,1010.84,VALID,0,VALID,102.948,VALID,0,VALID,23.7896,VALID,55,VALID,0,
2011-04-11, 00:37:04,VALID,1010.84,VALID,0,VALID,103.016,VALID,0.105969,VALID,23.7896,VALID,55,VALID,0,
2011-04-11, 00:38:04,VALID,1010.84,VALID,0,VALID,103.085,VALID,0.105969,VALID,23.7701,VALID,55,VALID,0,
2011-04-11, 00:39:04,VALID,1010.84,VALID,0,VALID,103.131,VALID,0.105969,VALID,23.7701,VALID,55,VALID,0,
2011-04-11, 00:40:04,VALID,1010.83,VALID,0,VALID,103.154,VALID,0,VALID,23.7914,VALID,55,VALID,0,
2011-04-11, 00:41:04,VALID,1010.82,VALID,0,VALID,103.123,VALID,0,VALID,23.7914,VALID,89,VALID,0,
2011-04-11, 00:42:04,VALID,1010.8,VALID,0,VALID,103.108,VALID,0,VALID,23.7701,VALID,127,VALID,0.598047,
2011-04-11, 00:43:05,VALID,1010.82,VALID,0,VALID,103.001,VALID,0,VALID,23.7701,VALID,127,VALID,0.517969,
2011-04-11, 00:44:05,VALID,1010.79,VALID,0,VALID,102.963,VALID,0,VALID,23.7896,VALID,127,VALID,0.189453,
2011-04-11, 00:45:04,VALID,1010.78,VALID,0,VALID,102.978,VALID,0,VALID,23.8109,VALID,127,VALID,0,
2011-04-11, 00:46:04,VALID,1010.8,VALID,0,VALID,102.978,VALID,0,VALID,23.8109,VALID,127,VALID,0,
2011-04-11, 00:47:05,VALID,1010.77,VALID,0,VALID,102.971,VALID,0,VALID,23.7896,VALID,127,VALID,0,
2011-04-11, 00:48:05,VALID,1010.74,VALID,0,VALID,102.948,VALID,0,VALID,23.7896,VALID,127,VALID,0,
2011-04-11, 00:49:05,VALID,1010.72,VALID,0,VALID,102.948,VALID,0,VALID,23.8304,VALID,127,VALID,0.380859,
2011-04-11, 00:50:05,VALID,1010.71,VALID,0,VALID,102.932,VALID,0,VALID,23.7914,VALID,326,VALID,0.391797,
2011-04-11, 00:51:05,VALID,1010.67,VALID,0,VALID,102.902,VALID,0,VALID,23.772,VALID,326,VALID,0.0585938,
2011-04-11, 00:52:05,VALID,1010.64,VALID,0,VALID,102.826,VALID,0,VALID,23.7525,VALID,46,VALID,0.486719,
2011-04-11, 00:53:05,VALID,1010.62,VALID,0,VALID,102.749,VALID,0,VALID,23.7701,VALID,69,VALID,0.425781,
2011-04-11, 00:54:05,VALID,1010.59,VALID,0,VALID,102.719,VALID,0,VALID,23.7914,VALID,69,VALID,0.144922,
2011-04-11, 00:55:05,VALID,1010.62,VALID,0,VALID,102.757,VALID,0,VALID,23.7914,VALID,69,VALID,0.458203,
2011-04-11, 00:56:05,VALID,1010.59,VALID,0,VALID,102.757,VALID,0,VALID,23.7701,VALID,69,VALID,0.398438,
2011-04-11, 00:57:05,VALID,1010.58,VALID,0,VALID,102.856,VALID,0,VALID,23.7914,VALID,69,VALID,0.407422,
2011-04-11, 00:58:05,VALID,1010.56,VALID,0,VALID,102.856,VALID,0,VALID,23.7701,VALID,69,VALID,0.485547,
2011-04-11, 00:59:05,VALID,1010.54,VALID,0,VALID,102.833,VALID,0,VALID,23.7914,VALID,71,VALID,0.664063,
2011-04-11, 01:00:05,VALID,1010.53,VALID,0,VALID,102.566,VALID,0,VALID,23.8109,VALID,79,VALID,0.759375,
2011-04-11, 01:01:05,VALID,1010.52,VALID,0,VALID,102.452,VALID,0,VALID,23.7896,VALID,68,VALID,0.250391,
2011-04-11, 01:02:05,VALID,1010.51,VALID,0,VALID,102.452,VALID,0,VALID,23.8304,VALID,71,VALID,0.242188,
2011-04-11, 01:03:05,VALID,1010.48,VALID,0,VALID,102.399,VALID,0,VALID,23.8091,VALID,80,VALID,0.893359,
2011-04-11, 01:04:05,VALID,1010.46,VALID,0,VALID,102.36,VALID,0,VALID,23.8499,VALID,83,VALID,0.687891,
2011-04-11, 01:05:05,VALID,1010.49,VALID,0,VALID,102.101,VALID,0,VALID,23.8286,VALID,94,VALID,0.810547,
2011-04-11, 01:06:05,VALID,1010.45,VALID,0,VALID,102.048,VALID,0,VALID,23.8286,VALID,92,VALID,0.805078,
2011-04-11, 01:07:05,VALID,1010.47,VALID,0,VALID,102.116,VALID,0,VALID,23.8694,VALID,80,VALID,0.780469,
2011-04-11, 01:08:05,VALID,1010.48,VALID,0,VALID,101.956,VALID,0,VALID,23.8694,VALID,95,VALID,0.424609,
2011-04-11, 01:09:05,VALID,1010.48,VALID,0,VALID,102.048,VALID,0,VALID,23.8694,VALID,95,VALID,0.188281,
2011-04-11, 01:10:05,VALID,1010.46,VALID,0,VALID,102.124,VALID,0,VALID,23.8889,VALID,95,VALID,0.306641,
2011-04-11, 01:11:05,VALID,1010.5,VALID,0,VALID,102.017,VALID,0,VALID,23.8694,VALID,95,VALID,0.352344,
2011-04-11, 01:12:05,VALID,1010.49,VALID,0,VALID,101.987,VALID,0,VALID,23.8499,VALID,95,VALID,0.142969,
2011-04-11, 01:13:05,VALID,1010.47,VALID,0,VALID,102.055,VALID,0,VALID,23.8694,VALID,103,VALID,0.425391,
2011-04-11, 01:14:05,VALID,1010.43,VALID,0,VALID,102.101,VALID,0,VALID,23.8694,VALID,143,VALID,0.786328,
2011-04-11, 01:15:05,VALID,1010.43,VALID,0,VALID,102.139,VALID,0,VALID,23.8499,VALID,152,VALID,0.782812,
2011-04-11, 01:16:05,VALID,1010.45,VALID,0,VALID,102.238,VALID,0,VALID,23.8109,VALID,167,VALID,0.890234,
2011-04-11, 01:17:05,VALID,1010.43,VALID,0,VALID,102.353,VALID,0,VALID,23.772,VALID,167,VALID,0.542578,
2011-04-11, 01:18:05,VALID,1010.41,VALID,0,VALID,102.482,VALID,0,VALID,23.7525,VALID,169,VALID,0.577344,
2011-04-11, 01:19:05,VALID,1010.42,VALID,0,VALID,102.566,VALID,0,VALID,23.7525,VALID,183,VALID,0.661328,
2011-04-11, 01:20:05,VALID,1010.38,VALID,0,VALID,102.65,VALID,0,VALID,23.7525,VALID,183,VALID,0.528125,
2011-04-11, 01:21:05,VALID,1010.37,VALID,0,VALID,102.635,VALID,0,VALID,23.733,VALID,176,VALID,0.752344,
2011-04-11, 01:22:05,VALID,1010.3,VALID,0,VALID,102.643,VALID,0,VALID,23.733,VALID,175,VALID,0.438281,
2011-04-11, 01:23:05,VALID,1010.3,VALID,0,VALID,102.704,VALID,0,VALID,23.7135,VALID,175,VALID,0.507031,
2011-04-11, 01:24:05,VALID,1010.3,VALID,0,VALID,102.749,VALID,0,VALID,23.733,VALID,175,VALID,0.399219,
2011-04-11, 01:25:05,VALID,1010.29,VALID,0,VALID,102.78,VALID,0,VALID,23.7117,VALID,175,VALID,0.268359,
2011-04-11, 01:26:05,VALID,1010.28,VALID,0,VALID,102.833,VALID,0,VALID,23.7135,VALID,175,VALID,0.355078,
2011-04-11, 01:27:05,VALID,1010.26,VALID,0,VALID,102.856,VALID,0,VALID,23.733,VALID,166,VALID,0.647266,
2011-04-11, 01:28:05,VALID,1010.23,VALID,0,VALID,102.932,VALID,0,VALID,23.733,VALID,163,VALID,0.332422,
2011-04-11, 01:29:05,VALID,1010.24,VALID,0,VALID,103.001,VALID,0,VALID,23.7525,VALID,163,VALID,0.560156,
2011-04-11, 01:30:05,VALID,1010.21,VALID,0,VALID,102.986,VALID,0,VALID,23.7117,VALID,153,VALID,0.592188,
2011-04-11, 01:31:05,VALID,1010.2,VALID,0,VALID,102.81,VALID,0,VALID,23.7117,VALID,139,VALID,0.565234,
2011-04-11, 01:32:05,VALID,1010.18,VALID,0,VALID,102.696,VALID,0,VALID,23.7525,VALID,139,VALID,0.689062,
2011-04-11, 01:33:05,VALID,1010.17,VALID,0,VALID,102.673,VALID,0,VALID,23.7525,VALID,139,VALID,0.198828,
2011-04-11, 01:34:05,VALID,1010.17,VALID,0,VALID,102.688,VALID,0,VALID,23.772,VALID,139,VALID,0.00585938,
2011-04-11, 01:35:05,VALID,1010.15,VALID,0,VALID,102.643,VALID,0,VALID,23.772,VALID,91,VALID,0.232812,
2011-04-11, 01:36:05,VALID,1010.14,VALID,0,VALID,102.566,VALID,0,VALID,23.7701,VALID,91,VALID,0.350781,
2011-04-11, 01:37:05,VALID,1010.15,VALID,0,VALID,102.597,VALID,0,VALID,23.7914,VALID,91,VALID,0.473437,
2011-04-11, 01:38:05,VALID,1010.1,VALID,0,VALID,102.498,VALID,0,VALID,23.772,VALID,80,VALID,0.572266,
2011-04-11, 01:39:05,VALID,1010.11,VALID,0,VALID,102.391,VALID,0,VALID,23.7525,VALID,79,VALID,0.509375,
2011-04-11, 01:40:05,VALID,1010.07,VALID,0,VALID,102.391,VALID,0,VALID,23.7525,VALID,79,VALID,0.26875,
2011-04-11, 01:41:05,VALID,1010.03,VALID,0,VALID,102.353,VALID,0,VALID,23.7525,VALID,80,VALID,0.480859,
2011-04-11, 01:42:05,VALID,1010.02,VALID,0,VALID,102.383,VALID,0,VALID,23.7525,VALID,80,VALID,0.553906,
2011-04-11, 01:43:05,VALID,1010.01,VALID,0,VALID,102.452,VALID,0,VALID,23.7525,VALID,80,VALID,0.639063,
2011-04-11, 01:44:05,VALID,1009.99,VALID,0,VALID,102.399,VALID,0,VALID,23.7312,VALID,105,VALID,0.559375,
2011-04-11, 01:45:05,VALID,1010.01,VALID,0,VALID,102.429,VALID,0,VALID,23.7525,VALID,105,VALID,0.798828,
2011-04-11, 01:46:05,VALID,1010.01,VALID,0,VALID,102.49,VALID,0,VALID,23.7525,VALID,105,VALID,0.0882813,
2011-04-11, 01:47:05,VALID,1009.97,VALID,0,VALID,102.566,VALID,0,VALID,23.7525,VALID,105,VALID,0.146094,
2011-04-11, 01:48:05,VALID,1009.93,VALID,0,VALID,102.62,VALID,0,VALID,23.7525,VALID,105,VALID,0.230859,
2011-04-11, 01:49:05,VALID,1009.93,VALID,0,VALID,102.574,VALID,0,VALID,23.733,VALID,104,VALID,0.420703,
2011-04-11, 01:50:05,VALID,1009.91,VALID,0,VALID,102.528,VALID,0,VALID,23.7135,VALID,100,VALID,0.476953,
2011-04-11, 01:51:05,VALID,1009.88,VALID,0,VALID,102.498,VALID,0,VALID,23.7135,VALID,100,VALID,0.302734,
2011-04-11, 01:52:05,VALID,1009.89,VALID,0,VALID,102.597,VALID,0,VALID,23.7135,VALID,100,VALID,0.405859,
2011-04-11, 01:53:05,VALID,1009.84,VALID,0,VALID,102.65,VALID,0,VALID,23.7135,VALID,100,VALID,0.248828,
2011-04-11, 01:54:05,VALID,1009.83,VALID,0,VALID,102.612,VALID,0,VALID,23.694,VALID,103,VALID,0.438672,
2011-04-11, 01:55:05,VALID,1009.83,VALID,0,VALID,102.696,VALID,0,VALID,23.7135,VALID,100,VALID,0.491797,
2011-04-11, 01:56:05,VALID,1009.78,VALID,0,VALID,102.742,VALID,0,VALID,23.7135,VALID,92,VALID,0.396875,
2011-04-11, 01:57:05,VALID,1009.77,VALID,0,VALID,102.696,VALID,0,VALID,23.6922,VALID,93,VALID,0.811328,
2011-04-11, 01:58:05,VALID,1009.74,VALID,0,VALID,102.62,VALID,0,VALID,23.7135,VALID,77,VALID,0.487891,
2011-04-11, 01:59:05,VALID,1009.74,VALID,0,VALID,102.597,VALID,0,VALID,23.7135,VALID,69,VALID,0.764844,
2011-04-11, 02:00:05,VALID,1009.74,VALID,0,VALID,102.551,VALID,0,VALID,23.694,VALID,61,VALID,0.504297,
2011-04-11, 02:01:05,VALID,1009.74,VALID,0,VALID,102.566,VALID,0,VALID,23.6922,VALID,61,VALID,0.43125,
2011-04-11, 02:02:05,VALID,1009.76,VALID,0,VALID,102.605,VALID,0,VALID,23.694,VALID,61,VALID,0.329297,
2011-04-11, 02:03:05,VALID,1009.75,VALID,0,VALID,102.65,VALID,0,VALID,23.6727,VALID,47,VALID,0.35625,
2011-04-11, 02:04:05,VALID,1009.74,VALID,0,VALID,102.612,VALID,0,VALID,23.6745,VALID,27,VALID,0.540234,
2011-04-11, 02:05:05,VALID,1009.75,VALID,0,VALID,102.62,VALID,0,VALID,23.655,VALID,26,VALID,0.494141,
2011-04-11, 02:06:05,VALID,1009.71,VALID,0,VALID,102.627,VALID,0,VALID,23.655,VALID,18,VALID,0.414453,
2011-04-11, 02:07:05,VALID,1009.69,VALID,0,VALID,102.681,VALID,0,VALID,23.6161,VALID,18,VALID,0.18125,
2011-04-11, 02:08:05,VALID,1009.67,VALID,0,VALID,102.734,VALID,0,VALID,23.5948,VALID,18,VALID,0,
2011-04-11, 02:09:05,VALID,1009.68,VALID,0,VALID,102.818,VALID,0,VALID,23.5966,VALID,18,VALID,0,
2011-04-11, 02:10:05,VALID,1009.69,VALID,0,VALID,102.841,VALID,0,VALID,23.5771,VALID,18,VALID,0,
2011-04-11, 02:11:05,VALID,1009.7,VALID,0,VALID,102.902,VALID,0,VALID,23.5771,VALID,18,VALID,0,
2011-04-11, 02:12:05,VALID,1009.67,VALID,0,VALID,102.948,VALID,0,VALID,23.5558,VALID,18,VALID,0,
2011-04-11, 02:13:05,VALID,1009.7,VALID,0,VALID,103.024,VALID,0,VALID,23.5771,VALID,18,VALID,0,
2011-04-11, 02:14:05,VALID,1009.65,VALID,0,VALID,103.062,VALID,0,VALID,23.5363,VALID,18,VALID,0,
2011-04-11, 02:15:05,VALID,1009.63,VALID,0,VALID,103.085,VALID,0,VALID,23.5381,VALID,18,VALID,0,
2011-04-11, 02:16:05,VALID,1009.63,VALID,0,VALID,103.131,VALID,0,VALID,23.5381,VALID,18,VALID,0,
2011-04-11, 02:17:05,VALID,1009.65,VALID,0,VALID,103.161,VALID,0,VALID,23.5186,VALID,18,VALID,0,
2011-04-11, 02:18:05,VALID,1009.6,VALID,0,VALID,103.245,VALID,0,VALID,23.5381,VALID,18,VALID,0,
2011-04-11, 02:19:05,VALID,1009.6,VALID,0,VALID,103.306,VALID,0,VALID,23.5169,VALID,18,VALID,0,
2011-04-11, 02:20:05,VALID,1009.6,VALID,0,VALID,103.39,VALID,0,VALID,23.5594,VALID,18,VALID,0,
2011-04-11, 02:21:05,VALID,1009.58,VALID,0,VALID,103.405,VALID,0,VALID,23.5381,VALID,18,VALID,0,
2011-04-11, 02:22:05,VALID,1009.56,VALID,0,VALID,103.398,VALID,0,VALID,23.5576,VALID,18,VALID,0,
2011-04-11, 02:23:05,VALID,1009.55,VALID,0,VALID,103.382,VALID,0,VALID,23.5381,VALID,18,VALID,0,
2011-04-11, 02:24:05,VALID,1009.52,VALID,0,VALID,103.375,VALID,0,VALID,23.5576,VALID,18,VALID,0,
2011-04-11, 02:25:05,VALID,1009.47,VALID,0,VALID,103.382,VALID,0,VALID,23.5381,VALID,34,VALID,0.467187,
2011-04-11, 02:26:05,VALID,1009.47,VALID,0,VALID,103.428,VALID,0,VALID,23.5363,VALID,73,VALID,0.521094,
2011-04-11, 02:27:05,VALID,1009.42,VALID,0,VALID,103.42,VALID,0,VALID,23.5576,VALID,74,VALID,0.553125,
2011-04-11, 02:28:05,VALID,1009.42,VALID,0,VALID,103.344,VALID,0,VALID,23.5771,VALID,89,VALID,0.627344,
2011-04-11, 02:29:05,VALID,1009.37,VALID,0,VALID,103.306,VALID,0,VALID,23.5966,VALID,93,VALID,0.559375,
2011-04-11, 02:30:05,VALID,1009.36,VALID,0,VALID,103.237,VALID,0,VALID,23.5753,VALID,124,VALID,0.926172,
2011-04-11, 02:31:05,VALID,1009.32,VALID,0,VALID,103.062,VALID,0,VALID,23.5966,VALID,107,VALID,1.15859,
2011-04-11, 02:32:05,VALID,1009.31,VALID,0,VALID,102.986,VALID,0,VALID,23.5966,VALID,102,VALID,0.870313,
2011-04-11, 02:33:05,VALID,1009.29,VALID,0,VALID,102.91,VALID,0,VALID,23.5966,VALID,124,VALID,0.898828,
2011-04-11, 02:34:05,VALID,1009.26,VALID,0,VALID,102.818,VALID,0,VALID,23.5984,VALID,111,VALID,0.983203,
2011-04-11, 02:35:05,VALID,1009.28,VALID,0,VALID,102.833,VALID,0,VALID,23.5771,VALID,115,VALID,0.907422,
2011-04-11, 02:36:05,VALID,1009.26,VALID,0,VALID,102.879,VALID,0,VALID,23.5771,VALID,123,VALID,0.666016,
2011-04-11, 02:37:05,VALID,1009.25,VALID,0,VALID,102.887,VALID,0,VALID,23.5576,VALID,110,VALID,0.469922,
2011-04-11, 02:38:05,VALID,1009.22,VALID,0,VALID,102.948,VALID,0,VALID,23.5771,VALID,87,VALID,0.194922,
2011-04-11, 02:39:05,VALID,1009.22,VALID,0,VALID,103.016,VALID,0,VALID,23.5558,VALID,130,VALID,0.684375,
2011-04-11, 02:40:05,VALID,1009.2,VALID,0,VALID,103.001,VALID,0,VALID,23.5558,VALID,130,VALID,0.632813,
2011-04-11, 02:41:05,VALID,1009.23,VALID,0,VALID,103.024,VALID,0,VALID,23.5558,VALID,117,VALID,1.05742,
2011-04-11, 02:42:05,VALID,1009.23,VALID,0,VALID,103.054,VALID,0,VALID,23.5363,VALID,116,VALID,0.5875,
2011-04-11, 02:43:05,VALID,1009.23,VALID,0,VALID,103.108,VALID,0.105969,VALID,23.5363,VALID,106,VALID,0.687109,
2011-04-11, 02:44:05,VALID,1009.19,VALID,0,VALID,103.169,VALID,0,VALID,23.5363,VALID,123,VALID,0.701563,
2011-04-11, 02:45:05,VALID,1009.2,VALID,0,VALID,103.222,VALID,0.105969,VALID,23.5363,VALID,132,VALID,0.6125,
2011-04-11, 02:46:05,VALID,1009.19,VALID,0,VALID,103.26,VALID,0.105969,VALID,23.5363,VALID,132,VALID,0.603906,
2011-04-11, 02:47:05,VALID,1009.17,VALID,0,VALID,103.298,VALID,0.105969,VALID,23.4974,VALID,126,VALID,0.667969,
2011-04-11, 02:48:05,VALID,1009.16,VALID,0,VALID,103.321,VALID,0.105969,VALID,23.4974,VALID,153,VALID,0.828906,
2011-04-11, 02:49:05,VALID,1009.17,VALID,0,VALID,103.375,VALID,0.105969,VALID,23.4974,VALID,146,VALID,0.85,
2011-04-11, 02:50:05,VALID,1009.16,VALID,0,VALID,103.398,VALID,0,VALID,23.4974,VALID,145,VALID,0.591406,
2011-04-11, 02:51:05,VALID,1009.16,VALID,0,VALID,103.428,VALID,0.105969,VALID,23.4779,VALID,139,VALID,0.330078,
2011-04-11, 02:52:05,VALID,1009.15,VALID,0,VALID,103.451,VALID,0,VALID,23.4779,VALID,139,VALID,0.442969,
2011-04-11, 02:53:05,VALID,1009.14,VALID,0,VALID,103.466,VALID,0,VALID,23.4797,VALID,141,VALID,0,
2011-04-11, 02:54:05,VALID,1009.13,VALID,0,VALID,103.527,VALID,0,VALID,23.4584,VALID,141,VALID,0.157422,
2011-04-11, 02:55:05,VALID,1009.12,VALID,0,VALID,103.573,VALID,0.105969,VALID,23.4584,VALID,141,VALID,0.900781,
2011-04-11, 02:56:05,VALID,1009.13,VALID,0,VALID,103.596,VALID,0.105969,VALID,23.4584,VALID,135,VALID,0.473047,
2011-04-11, 02:57:05,VALID,1009.12,VALID,0,VALID,103.619,VALID,0.105969,VALID,23.4797,VALID,109,VALID,0.792578,
2011-04-11, 02:58:05,VALID,1009.13,VALID,0,VALID,103.611,VALID,0.105969,VALID,23.4584,VALID,102,VALID,0.632031,
2011-04-11, 02:59:05,VALID,1009.13,VALID,0,VALID,103.642,VALID,0.105969,VALID,23.4779,VALID,102,VALID,0.230078,
2011-04-11, 03:00:05,VALID,1009.14,VALID,0,VALID,103.596,VALID,0,VALID,23.4974,VALID,98,VALID,0.789453,
2011-04-11, 03:01:05,VALID,1009.11,VALID,0,VALID,103.588,VALID,0,VALID,23.4992,VALID,93,VALID,0.566797,
2011-04-11, 03:02:05,VALID,1009.1,VALID,0,VALID,103.603,VALID,0,VALID,23.4779,VALID,95,VALID,0.357031,
2011-04-11, 03:03:05,VALID,1009.1,VALID,0,VALID,103.588,VALID,0,VALID,23.4779,VALID,111,VALID,0.604688,
2011-04-11, 03:04:05,VALID,1009.07,VALID,0,VALID,103.603,VALID,0,VALID,23.4992,VALID,107,VALID,0.394922,
2011-04-11, 03:05:05,VALID,1009.05,VALID,0,VALID,103.588,VALID,0,VALID,23.5186,VALID,107,VALID,0.148047,
2011-04-11, 03:06:05,VALID,1009.01,VALID,0,VALID,103.603,VALID,0.105969,VALID,23.4992,VALID,107,VALID,0.425391,
2011-04-11, 03:07:05,VALID,1009.01,VALID,0,VALID,103.573,VALID,0,VALID,23.4779,VALID,107,VALID,0.242969,
2011-04-11, 03:08:05,VALID,1008.98,VALID,0,VALID,103.603,VALID,0,VALID,23.4992,VALID,107,VALID,0.446094,
2011-04-11, 03:09:05,VALID,1008.96,VALID,0,VALID,103.558,VALID,0.105969,VALID,23.4584,VALID,107,VALID,0.540625,
2011-04-11, 03:10:05,VALID,1008.92,VALID,0,VALID,103.558,VALID,0,VALID,23.4584,VALID,107,VALID,0.2375,
2011-04-11, 03:11:05,VALID,1008.95,VALID,0,VALID,103.55,VALID,0,VALID,23.4194,VALID,107,VALID,0.239063,
2011-04-11, 03:12:05,VALID,1008.91,VALID,0,VALID,103.542,VALID,0,VALID,23.4407,VALID,94,VALID,0.324609,
2011-04-11, 03:13:05,VALID,1008.94,VALID,0,VALID,103.619,VALID,0,VALID,23.4,VALID,68,VALID,0.617578,
2011-04-11, 03:14:05,VALID,1008.91,VALID,0,VALID,103.703,VALID,0,VALID,23.4407,VALID,110,VALID,0.546094,
2011-04-11, 03:15:05,VALID,1008.91,VALID,0,VALID,103.748,VALID,0.105969,VALID,23.4194,VALID,110,VALID,0.537109,
2011-04-11, 03:16:05,VALID,1008.89,VALID,0,VALID,103.802,VALID,0,VALID,23.4194,VALID,102,VALID,0.533594,
2011-04-11, 03:17:05,VALID,1008.89,VALID,0,VALID,103.809,VALID,0,VALID,23.4,VALID,102,VALID,0.191016,
2011-04-11, 03:18:05,VALID,1008.89,VALID,0,VALID,103.809,VALID,0,VALID,23.4212,VALID,102,VALID,0.237109,
2011-04-11, 03:19:05,VALID,1008.86,VALID,0,VALID,103.863,VALID,0,VALID,23.4212,VALID,102,VALID,0.253906,
2011-04-11, 03:20:05,VALID,1008.87,VALID,0,VALID,103.832,VALID,0,VALID,23.4212,VALID,102,VALID,0.1625,
2011-04-11, 03:21:05,VALID,1008.83,VALID,0,VALID,103.863,VALID,0,VALID,23.4212,VALID,92,VALID,0.535937,
2011-04-11, 03:22:05,VALID,1008.86,VALID,0,VALID,103.863,VALID,0,VALID,23.3805,VALID,89,VALID,0.874609,
2011-04-11, 03:23:05,VALID,1008.82,VALID,0,VALID,103.87,VALID,0,VALID,23.4017,VALID,69,VALID,0.457031,
2011-04-11, 03:24:05,VALID,1008.82,VALID,0,VALID,103.848,VALID,0.105969,VALID,23.3805,VALID,100,VALID,0.907422,
2011-04-11, 03:25:05,VALID,1008.83,VALID,0,VALID,103.87,VALID,0,VALID,23.361,VALID,56,VALID,0.353906,
2011-04-11, 03:26:05,VALID,1008.81,VALID,0,VALID,103.863,VALID,0,VALID,23.361,VALID,66,VALID,0.738672,
2011-04-11, 03:27:05,VALID,1008.79,VALID,0,VALID,103.87,VALID,0,VALID,23.3628,VALID,73,VALID,0.480469,
2011-04-11, 03:28:05,VALID,1008.78,VALID,0,VALID,103.87,VALID,0,VALID,23.3628,VALID,84,VALID,0.973437,
2011-04-11, 03:29:05,VALID,1008.8,VALID,0,VALID,103.855,VALID,0,VALID,23.3415,VALID,74,VALID,1.15742,
2011-04-11, 03:30:05,VALID,1008.76,VALID,0,VALID,103.855,VALID,0,VALID,23.3415,VALID,70,VALID,0.827344,
2011-04-11, 03:31:05,VALID,1008.76,VALID,0,VALID,103.863,VALID,0,VALID,23.322,VALID,92,VALID,0.773047,
2011-04-11, 03:32:04,VALID,1008.74,VALID,0,VALID,103.886,VALID,0.105969,VALID,23.3415,VALID,95,VALID,0.998438,
2011-04-11, 03:33:04,VALID,1008.75,VALID,0,VALID,103.893,VALID,0,VALID,23.3026,VALID,90,VALID,0.934766,
2011-04-11, 03:34:04,VALID,1008.73,VALID,0,VALID,103.901,VALID,0,VALID,23.322,VALID,81,VALID,0.826953,
2011-04-11, 03:35:04,VALID,1008.71,VALID,0,VALID,103.916,VALID,0,VALID,23.3238,VALID,95,VALID,0.910156,
2011-04-11, 03:36:04,VALID,1008.71,VALID,0,VALID,103.924,VALID,0,VALID,23.2831,VALID,88,VALID,1.16172,
2011-04-11, 03:37:04,VALID,1008.7,VALID,0,VALID,103.886,VALID,0.105969,VALID,23.3026,VALID,97,VALID,0.838281,
2011-04-11, 03:38:04,VALID,1008.7,VALID,0,VALID,103.886,VALID,0,VALID,23.3238,VALID,76,VALID,0.889453,
2011-04-11, 03:39:04,VALID,1008.67,VALID,0,VALID,103.901,VALID,0,VALID,23.2831,VALID,83,VALID,0.517969,
2011-04-11, 03:40:04,VALID,1008.68,VALID,0,VALID,103.886,VALID,0,VALID,23.2831,VALID,75,VALID,0.7,
2011-04-11, 03:41:04,VALID,1008.66,VALID,0,VALID,103.84,VALID,0,VALID,23.2848,VALID,85,VALID,1.32344,
2011-04-11, 03:42:04,VALID,1008.67,VALID,0,VALID,103.817,VALID,0,VALID,23.2636,VALID,83,VALID,0.396484,
2011-04-11, 03:43:04,VALID,1008.67,VALID,0,VALID,103.825,VALID,0,VALID,23.2636,VALID,77,VALID,0.737891,
2011-04-11, 03:44:04,VALID,1008.67,VALID,0,VALID,103.825,VALID,0,VALID,23.2441,VALID,86,VALID,0.823438,
2011-04-11, 03:45:04,VALID,1008.68,VALID,0,VALID,103.825,VALID,0,VALID,23.2654,VALID,85,VALID,0.855078,
2011-04-11, 03:46:04,VALID,1008.71,VALID,0,VALID,103.84,VALID,0,VALID,23.2654,VALID,82,VALID,0.507031,